[[{"header":{"parameterUnit":"m.s-1","parameterCategory":1,"la1":30.2991,"la2":30.254,"lo1":-89.0895,"lo2":-89.0444,"dy":0.0017,"dx":0.0017,"nx":28,"ny":28,"refTime":"2024-03-24T21:00:00:Z","depth":0,"parameterNumber":2,"parameterNumberName":"U-component_of_WINDS"},"data":[0,0,0,0,0,0,0,0,0,0,0,0,0,0,0,0,0,0,0,0,0,0,0,0,0,0,0,0,0,0,0,0,0,0,0,0,0,0,0,0,0,0,0,0,0,0,0,0,0,0,0,0,0,0,0,0,0,0,-3.2664,-3.2666,0,-3.286,-3.2862,-3.2864,-3.2938,-3.2937,-3.2936,-3.2936,-3.3135,-3.3141,-3.3146,0,0,0,0,0,0,0,0,0,0,0,0,0,-3.2352,-3.2357,-3.2664,-3.2666,-3.2669,-3.286,-3.2862,-3.2865,-3.2938,-3.2937,-3.2936,-3.2936,-3.3133,-3.314,-3.3147,0,0,0,0,0,0,0,0,0,0,0,0,0,-3.2511,-3.2359,-3.2663,-3.2728,-3.2736,-3.2859,-3.2862,-3.2866,-3.2938,-3.2937,-3.2936,-3.2935,-3.3131,-3.3139,-3.3148,-3.3221,0,0,-3.3175,-3.3179,0,0,0,0,0,0,0,0,-3.2502,-3.2523,-3.2716,-3.2724,-3.2733,-3.2873,-3.2825,-3.2985,-3.2938,-3.2861,-3.2936,-3.2935,-3.3049,-3.3064,-3.3103,-3.323,-3.3239,-3.3176,-3.3181,-3.3185,-3.3187,0,0,0,0,0,0,0,-3.2491,-3.2515,-3.2741,-3.2719,-3.2729,-3.2747,-3.2769,-3.2856,-3.2958,-3.2868,-3.2874,-3.2896,-3.3053,-3.3094,-3.3108,-3.3242,-3.3175,-3.3183,-3.3189,-3.3192,-3.3439,-3.344,0,0,0,0,0,0,-3.2469,-3.2505,-3.2735,-3.2747,-3.2613,-3.2753,-3.2778,-3.2829,-3.2957,-3.2975,-3.2896,-3.2898,-3.308,-3.3098,-3.3115,-3.321,-3.3185,-3.3193,-3.3198,-3.3438,-3.344,-3.3441,0,0,0,0,0,0,-3.2462,-3.2489,-3.2727,-3.2628,-3.266,-3.276,-3.2817,-3.2833,-3.2875,-3.2979,-3.2997,-3.292,-3.308,-3.3103,-3.3194,-3.3217,-3.3197,-3.3205,-3.3436,-3.3438,-3.344,-3.3398,0,0,0,0,0,0,-3.2453,-3.2486,-3.2515,-3.2628,-3.2665,-3.2803,-3.2818,-3.2838,-3.289,-3.2895,-3.3005,-3.3023,-3.3081,-3.3181,-3.3203,-3.3229,-3.3212,-3.3435,-3.3437,-3.344,-3.3397,-3.3398,-3.3398,0,0,0,0,0,-3.2442,-3.2495,-3.2516,-3.2543,-3.2703,-3.2804,-3.2825,-3.2891,-3.2892,-3.2921,-3.2988,-3.3019,-3.3211,-3.3189,-3.3215,-3.3244,-3.3434,-3.3437,-3.3439,-3.3397,-3.3398,-3.3398,0,0,0,0,0,0,-3.2381,-3.2511,-3.2536,-3.2627,-3.2704,-3.2816,-3.2856,-3.2889,-3.2967,-3.2968,-3.3046,-3.3071,-3.3156,-3.3209,-3.3183,-3.3322,-3.3325,-3.3333,-3.3284,-3.3285,-3.3285,-3.327,-3.3219,0,0,0,0,0,-3.2379,-3.2451,-3.256,-3.263,-3.2667,-3.2755,-3.2801,-3.2845,-3.2928,-3.2961,-3.3034,-3.3113,-3.3192,-3.3241,-3.3319,-3.3406,-3.3431,-3.3438,-3.3439,-3.3438,-3.3444,-3.3495,-3.3499,-3.345,-3.345,-3.345,0,0,-3.2374,-3.2453,-3.2494,-3.2619,-3.2684,-3.2757,-3.2781,-3.2857,-3.2912,-3.2972,-3.3063,-3.312,-3.3213,-3.3302,-3.3346,-3.335,-3.3464,-3.3442,-3.3441,-3.3448,-3.3498,-3.3503,-3.3507,-3.3452,-3.3452,-3.3452,0,0,-3.2402,-3.2469,-3.2535,-3.26,-3.2698,-3.2756,-3.2772,-3.288,-3.292,-3.3013,-3.306,-3.3126,-3.3259,-3.3323,-3.3374,-3.3427,-3.3459,-3.345,-3.3452,-3.35,-3.3504,-3.3508,-3.3527,-3.3533,-3.3456,-3.3456,-3.3456,0,-3.2383,-3.2495,-3.2565,-3.2638,-3.2692,-3.2751,-3.2819,-3.2878,-3.2996,-3.3032,-3.3035,-3.3204,-3.3271,-3.3376,-3.3389,-3.3428,-3.3448,-3.3438,-3.3498,-3.3502,-3.3507,-3.3526,-3.3533,-3.3454,-3.3454,-3.3454,-3.3455,0,-3.2467,-3.2544,-3.2585,-3.2699,-3.2757,-3.2827,-3.2907,-3.2958,-3.2998,-3.3055,-3.3149,-3.3231,-3.3327,-3.3355,-3.3394,-3.3467,-3.3466,-3.3483,-3.3487,-3.3509,-3.3528,-3.3536,-3.3452,-3.3452,-3.3453,-3.3453,0,0,-3.2462,-3.2614,-3.2628,-3.268,-3.2793,-3.2854,-3.2927,-3.3021,-3.3063,-3.3143,-3.3206,-3.3317,-3.3333,-3.339,-3.3437,-3.3479,-3.3516,-3.3491,-3.3494,-3.3492,-3.3602,-3.3589,-3.3596,-3.3538,-3.354,-3.3541,-3.3594,0,-3.2505,-3.2638,-3.2703,-3.2808,-3.288,-3.2937,-3.3001,-3.3077,-3.3132,-3.3201,-3.3263,-3.3341,-3.3356,-3.3391,-3.3435,-3.3502,-3.3539,-3.3499,-3.3597,-3.36,-3.3572,-3.3606,-3.3593,-3.3638,-3.3602,-3.3603,-3.3604,0,-3.2573,-3.2653,-3.2765,-3.287,-3.2903,-3.2958,-3.305,-3.3115,-3.3203,-3.3241,-3.3304,-3.335,-3.3429,-3.3428,-3.3537,-3.3509,-3.3553,-3.3592,-3.3595,-3.3607,-3.3603,-3.3618,-3.3654,-3.3661,-3.3617,-3.3616,-3.3615,0,-3.2558,-3.2694,-3.2779,-3.2822,-3.2946,-3.2984,-3.3038,-3.3125,-3.3177,-3.3258,-3.3293,-3.338,-3.3429,-3.3496,-3.3564,-3.3557,-3.3667,-3.3671,-3.37,-3.3698,-3.3721,-3.3718,-3.3764,-3.3749,-3.3749,-3.3749,-3.3748,0,-3.26,-3.2666,-3.2774,-3.2825,-3.2901,-3.2976,-3.3049,-3.3107,-3.3183,-3.3248,-3.3303,-3.3361,-3.3448,-3.3518,-3.3572,-3.3654,-3.3676,-3.3708,-3.3722,-3.3704,-3.3699,-3.3733,-3.3732,-3.375,-3.375,-3.375,-3.3749,0,-3.2596,-3.2671,-3.2767,-3.2877,-3.2907,-3.2958,-3.3052,-3.3105,-3.3164,-3.3244,-3.3267,-3.336,-3.3445,-3.352,-3.3632,-3.3668,-3.3753,-3.377,-3.3723,-3.3731,-3.3755,-3.3752,-3.3825,-3.3838,-3.3813,-3.3813,-3.3813,0,-3.2617,-3.267,-3.2786,-3.2833,-3.2886,-3.2961,-3.3015,-3.3091,-3.3145,-3.3249,-3.3289,-3.3378,-3.3453,-3.3587,-3.3664,-3.375,-3.3769,-3.3789,-3.3783,-3.3763,-3.377,-3.3766,-3.3772,-3.3788,-3.3788,-3.3788,-3.3788,0,-3.2647,-3.2682,-3.2758,-3.2848,-3.2911,-3.2985,-3.306,-3.3095,-3.3185,-3.3243,-3.3331,-3.3389,-3.3505,-3.3592,-3.3687,-3.3743,-3.378,-3.3789,-3.3801,-3.3783,-3.3754,-3.377,-3.3723,-3.3787,-3.3787,-3.3787,-3.3788,-3.3788,-3.2658,-3.2707,-3.2796,-3.2879,-3.2944,-3.3014,-3.3069,-3.3135,-3.3209,-3.3309,-3.3349,-3.3439,-3.3526,-3.3657,-3.3713,-3.3784,-3.379,-3.3806,-3.3811,-3.3814,-3.381,-3.3742,-3.3801,-3.3801,-3.3802,-3.3802,-3.3802,0,-3.2691,-3.2751,-3.2827,-3.2931,-3.2996,-3.3027,-3.3112,-3.3164,-3.3243,-3.3321,-3.3394,-3.3495,-3.3581,-3.3665,-3.3755,-3.3796,-3.3815,-3.3817,-3.3815,-3.3827,-3.3799,-3.3781,-3.3799,-3.3799,-3.3799,-3.3799,-3.3799,-3.3799,-3.2716,-3.2801,-3.2846,-3.2964,-3.3024,-3.3113,-3.3159,-3.3223,-3.3286,-3.3396,-3.3468,-3.3522,-3.3603,-3.3699,-3.3779,-3.3802,-3.3833,-3.3829,-3.3856,-3.3829,-3.3829,-3.3828,-3.3811,-3.3835,-3.3835,-3.3878,-3.3879,-3.3879]},{"header":{"parameterUnit":"m.s-1","parameterCategory":1,"la1":30.2991,"la2":30.254,"lo1":-89.0895,"lo2":-89.0444,"dy":0.0017,"dx":0.0017,"nx":28,"ny":28,"refTime":"2024-03-24T21:00:00:Z","depth":0,"parameterNumber":3,"parameterNumberName":"V-component_of_WINDS"},"data":[0,0,0,0,0,0,0,0,0,0,0,0,0,0,0,0,0,0,0,0,0,0,0,0,0,0,0,0,0,0,0,0,0,0,0,0,0,0,0,0,0,0,0,0,0,0,0,0,0,0,0,0,0,0,0,0,0,0,6.9728,6.9729,0,6.986,6.9861,6.9863,6.9883,6.9882,6.9881,6.988,7.0009,7.0013,7.0018,0,0,0,0,0,0,0,0,0,0,0,0,0,6.9489,6.9493,6.9728,6.9729,6.9731,6.9859,6.9861,6.9863,6.9884,6.9882,6.9881,6.9879,7.0008,7.0013,7.0018,0,0,0,0,0,0,0,0,0,0,0,0,0,6.9604,6.9495,6.9727,6.9757,6.9761,6.9859,6.9861,6.9863,6.9884,6.9882,6.988,6.9879,7.0006,7.0012,7.0019,7.0095,0,0,7.004,7.0043,0,0,0,0,0,0,0,0,6.9597,6.9612,6.9751,6.9755,6.976,6.9853,6.9824,6.9941,6.9884,6.9837,6.988,6.9878,6.9958,6.9969,6.9997,7.0101,7.0107,7.004,7.0044,7.0047,7.0049,0,0,0,0,0,0,0,6.9589,6.9607,6.978,6.9753,6.9758,6.9762,6.9776,6.9847,6.9905,6.9841,6.9843,6.9858,6.996,6.9991,7.0,7.0109,7.004,7.0046,7.005,7.0053,7.0284,7.0286,0,0,0,0,0,0,6.9577,6.96,6.9775,6.9784,6.9673,6.9768,6.9784,6.9825,6.9905,6.9915,6.986,6.9859,6.998,6.9992,7.0005,7.0102,7.0047,7.0054,7.0057,7.0282,7.0285,7.0287,0,0,0,0,0,0,6.9571,6.9592,6.977,6.9692,6.9715,6.9774,6.982,6.9828,6.9859,6.9919,6.9929,6.988,6.9979,6.9995,7.0074,7.0106,7.0057,7.0063,7.028,7.0283,7.0286,7.0294,0,0,0,0,0,0,6.9564,6.959,6.9621,6.9693,6.972,6.9838,6.9822,6.9832,6.9871,6.9871,6.9941,6.9951,6.9979,7.0063,7.008,7.0115,7.0068,7.0277,7.0281,7.0285,7.0291,7.0297,7.0302,0,0,0,0,0,6.9556,6.9616,6.9622,6.9643,6.9759,6.984,6.9855,6.9888,6.9874,6.9904,6.9943,6.9949,7.01,7.0071,7.009,7.0127,7.0275,7.028,7.0285,7.0289,7.0296,7.0302,0,0,0,0,0,0,6.9543,6.9626,6.9634,6.9719,6.9773,6.9843,6.9883,6.9894,6.9951,6.9948,6.9985,7.0,7.0077,7.0109,7.0076,7.0206,7.0186,7.0195,7.0183,7.019,7.0195,7.0187,7.0074,0,0,0,0,0,6.955,6.961,6.9679,6.9747,6.9774,6.9824,6.986,6.9881,6.9937,6.9959,7.0004,7.0057,7.0116,7.0155,7.0212,7.0295,7.0312,7.033,7.0336,7.034,7.0348,7.0396,7.0406,7.0302,7.0302,7.0302,0,0,6.9565,6.9618,6.9653,6.9746,6.979,6.9851,6.9843,6.9906,6.9952,6.9968,7.0046,7.0081,7.0142,7.0224,7.0262,7.0253,7.038,7.0346,7.0349,7.0354,7.0402,7.0412,7.042,7.0306,7.0305,7.0305,0,0,6.9625,6.967,6.9734,6.9779,6.9847,6.988,6.9895,6.9965,6.9989,7.0068,7.0083,7.0136,7.0237,7.0282,7.0317,7.0395,7.0403,7.0413,7.0442,7.0489,7.0497,7.0505,7.0535,7.0545,7.042,7.042,7.042,0,6.9634,6.9729,6.9764,6.9829,6.987,6.989,6.9955,6.9996,7.0078,7.0105,7.0095,7.0225,7.0267,7.0361,7.038,7.0407,7.0426,7.0406,7.0493,7.0501,7.0509,7.0538,7.0549,7.0421,7.0421,7.0421,7.042,0,6.9738,6.9803,6.9846,6.9929,6.9974,7.0038,7.0083,7.0124,7.0141,7.0175,7.0256,7.0308,7.0378,7.0401,7.0417,7.0498,7.0491,7.0486,7.0467,7.0519,7.0547,7.0558,7.0422,7.0422,7.0422,7.0421,0,0,6.9793,6.9896,6.9912,6.995,7.0028,7.0078,7.0142,7.0214,7.0249,7.0305,7.0361,7.0447,7.0445,7.0485,7.0506,7.0547,7.0609,7.0538,7.054,7.0551,7.0703,7.0707,7.072,7.0614,7.0616,7.0618,7.0699,0,6.9863,6.9983,7.0018,7.0117,7.0179,7.0199,7.0256,7.0309,7.0342,7.0398,7.0434,7.0496,7.0487,7.0512,7.0553,7.0593,7.064,7.0587,7.0666,7.0669,7.0653,7.0734,7.0738,7.0812,7.0709,7.0711,7.0713,0,6.9961,7.0023,7.0129,7.0201,7.0228,7.0279,7.0348,7.0401,7.0461,7.0483,7.0529,7.0548,7.0616,7.0592,7.0687,7.065,7.0684,7.0709,7.0712,7.0722,7.0695,7.0748,7.0836,7.0848,7.073,7.0728,7.0727,0,6.9993,7.0102,7.0181,7.0213,7.0298,7.0334,7.037,7.0429,7.047,7.053,7.0557,7.0622,7.0659,7.0709,7.0744,7.0723,7.0837,7.0815,7.0857,7.0856,7.0881,7.0879,7.0978,7.09,7.09,7.0899,7.0899,0,7.0069,7.0134,7.0197,7.0246,7.0319,7.0358,7.043,7.0467,7.0519,7.0575,7.0595,7.0647,7.069,7.0747,7.0774,7.085,7.0865,7.0885,7.0892,7.0884,7.0882,7.0908,7.0905,7.0902,7.0902,7.0901,7.0901,0,7.0118,7.0162,7.025,7.0325,7.0345,7.0396,7.0459,7.0506,7.0541,7.0612,7.063,7.0684,7.0753,7.0793,7.0878,7.0897,7.0981,7.0985,7.0962,7.0966,7.1006,7.1002,7.1126,7.1145,7.1053,7.1053,7.1054,0,7.0164,7.0215,7.0296,7.0336,7.0374,7.0438,7.0481,7.0521,7.0565,7.0639,7.0678,7.0748,7.0807,7.0915,7.0961,7.1027,7.1034,7.1073,7.1043,7.1035,7.1037,7.1034,7.104,7.1078,7.1079,7.1079,7.108,0,7.0243,7.0263,7.0326,7.0397,7.0449,7.0506,7.0562,7.0593,7.0642,7.0691,7.0763,7.0808,7.0897,7.0967,7.1038,7.1074,7.1086,7.1089,7.1102,7.1096,7.1082,7.1092,7.0978,7.1086,7.1085,7.1085,7.1084,7.1084,7.0293,7.0341,7.0406,7.0476,7.0523,7.0576,7.0626,7.0668,7.0729,7.0807,7.0826,7.0902,7.0962,7.1058,7.1096,7.1155,7.1149,7.1168,7.1173,7.1178,7.118,7.1071,7.1168,7.1168,7.1168,7.1168,7.1168,0,7.0375,7.0418,7.0482,7.0563,7.0618,7.0625,7.0689,7.0734,7.0801,7.0857,7.0916,7.0999,7.1067,7.112,7.119,7.1227,7.1234,7.1244,7.1243,7.1251,7.1181,7.1163,7.1238,7.1237,7.1237,7.1237,7.1237,7.1237,7.0424,7.0506,7.0534,7.0639,7.0682,7.0759,7.0795,7.0844,7.0889,7.0982,7.104,7.1074,7.1129,7.1204,7.1267,7.128,7.1306,7.1316,7.133,7.1263,7.1256,7.1249,7.1233,7.132,7.132,7.1396,7.1397,7.1397]}]]